GW3329 Weather Reports


Display with metric or nautical units.
time (UTC)temp
F
wind
direction
speed
MPH
gust
MPH
rain 1hr
in
rain 24hr
in
rain mn
in
humidity
%
barometer
mb
20260510014914 64 160 0.0 2.0 0.00 0.00 0.00 79 1015.3
20260510014412 65 232 2.0 3.0 0.00 0.00 0.00 79 1015.7
20260510013908 65 67 0.0 3.0 0.00 0.00 0.00 76 1015.7
20260510013403 65 230 0.0 2.0 0.00 0.00 0.00 76 1015.2
20260510012858 66 234 2.0 3.0 0.00 0.00 0.00 76 1015.2
20260510012354 66 254 3.0 3.0 0.00 0.00 0.00 75 1015.6
20260510011849 67 252 2.0 4.0 0.00 0.00 0.00 74 1015.5
20260510011344 67 262 2.0 3.0 0.00 0.00 0.00 74 1015.5
20260510010840 68 321 0.0 2.0 0.00 0.00 0.00 74 1015.5
20260510010338 68 189 1.0 2.0 0.00 0.00 0.00 72 1015.5
20260510005834 68 116 1.0 4.0 0.00 0.00 0.00 71 1015.3
20260510005331 69 162 0.0 3.0 0.00 0.00 0.00 70 1015.5
20260510004829 69 54 0.0 3.0 0.00 0.00 0.00 71 1015.5
20260510004326 70 201 1.0 2.0 0.00 0.00 0.00 69 1015.6
20260510003823 70 89 2.0 2.0 0.00 0.00 0.00 69 1015.5
20260510003321 71 326 2.0 2.0 0.00 0.00 0.00 67 1015.6
20260510002819 71 17 0.0 3.0 0.00 0.00 0.00 68 1015.6
20260510002317 71 176 0.0 3.0 0.00 0.00 0.00 67 1015.5
20260510001813 71 318 2.0 3.0 0.00 0.00 0.00 67 1015.6
20260510001311 71 269 3.0 6.0 0.00 0.00 0.00 67 1015.5
20260510000806 71 79 1.0 4.0 0.00 0.00 0.00 67 1015.7
20260510000305 73 187 0.0 3.0 0.00 0.00 0.00 65 1015.3
20260509235802 72 179 0.0 1.0 0.00 0.00 0.00 64 1015.7
20260509235258 73 33 1.0 3.0 0.00 0.00 0.00 64 1015.5
20260509234754 74 84 0.0 3.0 0.00 0.00 0.00 63 1015.3
20260509234251 73 96 1.0 2.0 0.00 0.00 0.00 63 1015.6
20260509233749 74 140 1.0 6.0 0.00 0.00 0.00 63 1015.3
20260509233246 74 333 1.0 2.0 0.00 0.00 0.00 62 1015.5
20260509232742 74 270 2.0 3.0 0.00 0.00 0.00 62 1015.5
20260509232240 74 12 1.0 2.0 0.00 0.00 0.00 63 1015.7
20260509231736 74 249 2.0 6.0 0.00 0.00 0.00 63 1015.8
20260509231233 75 329 2.0 4.0 0.00 0.00 0.00 61 1015.7
20260509230730 75 265 2.0 2.0 0.00 0.00 0.00 60 1015.6
20260509230227 75 185 1.0 3.0 0.00 0.00 0.00 61 1015.8
20260509225722 75 218 1.0 2.0 0.00 0.00 0.00 61 1015.9
20260509225218 75 211 0.0 4.0 0.00 0.00 0.00 61 1015.6
20260509224714 75 239 2.0 4.0 0.00 0.00 0.00 62 1015.8
20260509224211 74 236 0.0 2.0 0.00 0.00 0.00 62 1015.9
20260509223708 74 61 0.0 2.0 0.00 0.00 0.00 64 1015.9
20260509223205 75 253 0.0 3.0 0.00 0.00 0.00 62 1016.0
20260509222702 74 72 1.0 6.0 0.00 0.00 0.00 62 1016.1
20260509222158 75 119 0.0 3.0 0.00 0.00 0.00 63 1015.8
20260509221654 74 187 1.0 3.0 0.00 0.00 0.00 63 1016.0
20260509221149 75 274 1.0 6.0 0.00 0.00 0.00 62 1016.2
20260509220646 75 188 0.0 8.0 0.00 0.00 0.00 62 1016.2
20260509220142 76 280 5.0 7.0 0.00 0.00 0.00 61 1016.3
20260509215638 75 183 2.0 7.0 0.00 0.00 0.00 62 1016.3
20260509215135 75 217 2.0 3.0 0.00 0.00 0.00 62 1016.3
20260509214632 75 157 1.0 3.0 0.00 0.00 0.00 62 1016.2
20260509214129 76 266 1.0 3.0 0.00 0.00 0.00 61 1016.2
20260509213626 76 227 2.0 4.0 0.00 0.00 0.00 62 1016.4
20260509213121 75 251 4.0 6.0 0.00 0.00 0.00 63 1016.5
20260509212619 75 250 1.0 4.0 0.00 0.00 0.00 64 1016.7
20260509212116 75 183 1.0 7.0 0.00 0.00 0.00 63 1016.3
20260509211612 75 229 2.0 2.0 0.00 0.00 0.00 63 1016.6
20260509211109 75 237 4.0 7.0 0.00 0.00 0.00 64 1016.5
20260509210605 75 35 2.0 4.0 0.00 0.00 0.00 64 1016.6
20260509205556 74 169 2.0 4.0 0.00 0.00 0.00 65 1016.9
20260509205051 75 284 4.0 7.0 0.00 0.00 0.00 65 1016.9
20260509204548 74 25 1.0 4.0 0.00 0.00 0.00 65 1016.8
20260509204045 74 29 2.0 3.0 0.00 0.00 0.00 65 1016.6
20260509203540 74 50 2.0 8.0 0.00 0.00 0.00 66 1016.7
20260509203038 74 170 2.0 3.0 0.00 0.00 0.00 65 1016.9
20260509202533 74 326 2.0 2.0 0.00 0.00 0.00 66 1017.0
20260509202029 74 243 5.0 8.0 0.00 0.00 0.00 65 1017.0
20260509201524 74 146 2.0 7.0 0.00 0.00 0.00 65 1016.9
20260509201021 74 184 2.0 4.0 0.00 0.00 0.00 65 1017.1
20260509200515 73 208 1.0 4.0 0.00 0.00 0.00 66 1017.0
20260509200012 73 27 0.0 3.0 0.00 0.00 0.00 67 1016.7
20260509195508 74 235 2.0 3.0 0.00 0.00 0.00 66 1016.9
20260509195002 73 49 0.0 3.0 0.00 0.00 0.00 68 1017.2
20260509194457 73 30 2.0 6.0 0.00 0.00 0.00 67 1017.2
20260509193954 73 169 2.0 6.0 0.00 0.00 0.00 68 1017.2
20260509193449 73 209 3.0 4.0 0.00 0.00 0.00 67 1017.2
20260509192945 73 203 3.0 3.0 0.00 0.00 0.00 67 1017.0
20260509192442 74 189 2.0 4.0 0.00 0.00 0.00 66 1017.2
20260509191937 73 204 2.0 8.0 0.00 0.00 0.00 68 1017.2
20260509191432 72 213 2.0 6.0 0.00 0.00 0.00 67 1017.6
20260509190929 73 236 1.0 7.0 0.00 0.00 0.00 67 1017.2
20260509190426 72 344 1.0 4.0 0.00 0.00 0.00 69 1017.3
20260509185924 71 263 3.0 7.0 0.00 0.00 0.00 69 1017.3
20260509185421 72 305 4.0 6.0 0.00 0.00 0.00 68 1017.2
20260509184917 71 193 3.0 4.0 0.00 0.00 0.00 69 1017.4
20260509184415 72 225 3.0 6.0 0.00 0.00 0.00 68 1017.3
20260509183911 70 42 0.0 2.0 0.00 0.00 0.00 71 1017.5
20260509183406 70 302 2.0 3.0 0.00 0.00 0.00 71 1017.5
20260509182902 70 284 3.0 3.0 0.00 0.00 0.00 72 1017.6
20260509182359 70 143 1.0 4.0 0.00 0.00 0.00 72 1017.6
20260509181857 69 251 2.0 4.0 0.00 0.00 0.00 74 1017.6
20260509181354 69 162 1.0 2.0 0.00 0.00 0.00 74 1017.8
20260509180851 69 355 1.0 3.0 0.00 0.00 0.00 75 1017.6
20260509180346 68 92 0.0 4.0 0.00 0.00 0.00 77 1017.8
20260509175844 67 220 3.0 3.0 0.00 0.00 0.00 77 1017.8
20260509175340 67 262 2.0 4.0 0.00 0.00 0.00 79 1017.8
20260509174836 65 13 1.0 3.0 0.00 0.00 0.00 81 1017.6
20260509174332 65 158 0.0 4.0 0.00 0.00 0.00 81 1017.7
20260509173828 66 358 1.0 2.0 0.00 0.00 0.00 79 1018.0
20260509173323 65 210 1.0 6.0 0.00 0.00 0.00 81 1017.8
20260509172820 65 296 3.0 3.0 0.00 0.00 0.00 81 1017.8
20260509172317 65 238 2.0 4.0 0.00 0.00 0.00 82 1018.1
20260509171813 65 257 2.0 4.0 0.00 0.00 0.00 81 1017.6
20260509171308 65 191 1.0 3.0 0.00 0.00 0.00 81 1017.8
20260509170805 64 172 0.0 3.0 0.00 0.00 0.00 84 1017.5
20260509170301 64 257 1.0 2.0 0.00 0.00 0.00 84 1017.6
20260509165800 64 281 1.0 2.0 0.00 0.00 0.00 84 1017.8
20260509165255 63 347 2.0 2.0 0.00 0.00 0.00 85 1017.7
20260509164751 62 78 1.0 2.0 0.00 0.00 0.00 86 1017.7
20260509164248 62 173 2.0 3.0 0.00 0.00 0.00 86 1017.8
20260509163745 61 183 3.0 4.0 0.00 0.00 0.00 88 1017.4
20260509163241 61 250 1.0 3.0 0.00 0.00 0.00 88 1017.8
20260509162739 62 327 3.0 4.0 0.00 0.00 0.00 88 1017.8
20260509162234 61 157 0.0 2.0 0.00 0.00 0.00 88 1017.8
20260509161730 61 141 0.0 2.0 0.00 0.00 0.00 89 1018.0
20260509161226 60 239 1.0 2.0 0.00 0.00 0.00 90 1017.7
20260509160721 60 336 0.0 0.0 0.00 0.00 0.00 92 1017.6
20260509160218 59 187 1.0 2.0 0.00 0.00 0.00 93 1017.8
20260509155713 58 176 1.0 3.0 0.00 0.00 0.00 93 1017.8
20260509155210 58 212 2.0 3.0 0.00 0.00 0.00 93 1017.8
20260509154706 58 228 1.0 3.0 0.00 0.00 0.00 93 1017.9
20260509154203 58 134 0.0 2.0 0.00 0.00 0.00 94 1017.9
20260509153700 58 184 0.0 0.0 0.00 0.00 0.00 93 1017.8
20260509153156 58 152 0.0 1.0 0.00 0.00 0.00 94 1017.9
20260509152652 57 161 0.0 0.0 0.00 0.00 0.00 95 1017.7
20260509152149 57 242 2.0 2.0 0.00 0.00 0.00 95 1017.9
20260509151646 57 187 0.0 1.0 0.00 0.00 0.00 96 1017.7
20260509151143 57 309 0.0 1.0 0.00 0.00 0.00 96 1017.5
20260509150641 57 156 0.0 0.0 0.00 0.00 0.00 97 1017.8
20260509150139 56 126 0.0 0.0 0.00 0.00 0.00 97 1017.4
20260509145635 56 124 0.0 0.0 0.00 0.00 0.00 97 1017.8
20260509145130 56 136 0.0 0.0 0.00 0.00 0.00 98 1017.7
20260509144627 55 135 0.0 0.0 0.00 0.00 0.00 98 1017.8
20260509144124 55 142 0.0 0.0 0.00 0.00 0.00 98 1017.6
20260509143621 55 145 0.0 0.0 0.00 0.00 0.00 98 1017.7
20260509143119 55 147 0.0 0.0 0.00 0.00 0.00 98 1017.8
20260509142614 55 170 0.0 0.0 0.00 0.00 0.00 98 1017.7
20260509142111 54 133 0.0 0.0 0.00 0.00 0.00 98 1017.8
20260509141607 54 142 0.0 0.0 0.00 0.00 0.00 98 1017.8
20260509141103 54 78 0.0 0.0 0.00 0.00 0.00 98 1017.8
20260509140600 54 132 0.0 0.0 0.00 0.00 0.00 98 1017.6
20260509140058 54 126 0.0 0.0 0.00 0.00 0.00 98 1017.7
20260509135555 54 149 0.0 0.0 0.00 0.00 0.00 98 1017.7
20260509135053 54 323 0.0 0.0 0.00 0.00 0.00 98 1017.5
20260509134549 54 165 0.0 0.0 0.00 0.00 0.00 98 1017.6
20260509134047 54 345 0.0 0.0 0.00 0.00 0.00 98 1017.4
20260509133544 54 133 0.0 1.0 0.00 0.00 0.00 98 1017.3
20260509133042 54 149 0.0 0.0 0.00 0.00 0.00 98 1017.3
20260509132540 54 87 0.0 0.0 0.00 0.00 0.00 98 1017.1
20260509132037 54 163 0.0 0.0 0.00 0.00 0.00 98 1017.4
20260509131528 54 161 0.0 0.0 0.00 0.00 0.00 98 1017.4
20260509131025 53 156 0.0 0.0 0.00 0.00 0.00 98 1017.3
20260509130520 53 162 0.0 0.0 0.00 0.00 0.00 98 1017.4
20260509130018 53 186 0.0 0.0 0.00 0.00 0.00 97 1017.2
20260509125514 53 162 0.0 0.0 0.00 0.00 0.00 98 1017.2
20260509125010 53 165 0.0 0.0 0.00 0.00 0.00 98 1017.1
20260509124507 53 168 0.0 0.0 0.00 0.00 0.00 98 1017.1
20260509124004 53 158 0.0 0.0 0.00 0.00 0.00 98 1017.0
20260509123502 53 161 0.0 0.0 0.00 0.00 0.00 98 1016.9
20260509122957 53 146 0.0 0.0 0.00 0.00 0.00 98 1016.9
20260509122455 53 166 0.0 0.0 0.00 0.00 0.00 98 1017.1
20260509121951 53 155 0.0 0.0 0.00 0.00 0.00 98 1017.0
20260509121448 52 164 0.0 0.0 0.00 0.00 0.00 98 1016.9
20260509120946 53 171 0.0 0.0 0.00 0.00 0.00 98 1016.9
20260509120444 53 34 0.0 0.0 0.00 0.00 0.00 98 1016.9
20260509115942 53 145 0.0 0.0 0.00 0.00 0.00 98 1016.9
20260509115439 52 171 0.0 0.0 0.00 0.00 0.00 98 1016.8
20260509114936 52 145 0.0 0.0 0.00 0.00 0.00 98 1017.1
20260509114435 52 161 0.0 0.0 0.00 0.00 0.00 98 1017.0
20260509113934 52 160 0.0 0.0 0.00 0.00 0.00 98 1016.9
20260509113431 52 157 0.0 0.0 0.00 0.00 0.00 98 1017.1
20260509112927 52 157 0.0 0.0 0.00 0.00 0.00 98 1016.9
20260509112425 52 164 0.0 0.0 0.00 0.00 0.00 98 1017.1
20260509111921 52 146 0.0 0.0 0.00 0.00 0.00 98 1017.2
20260509111419 52 160 0.0 0.0 0.00 0.00 0.00 98 1017.0
20260509110916 52 160 0.0 0.0 0.00 0.00 0.00 98 1017.2
20260509110412 51 160 0.0 0.0 0.00 0.00 0.00 98 1017.2
20260509105910 51 160 0.0 0.0 0.00 0.00 0.00 98 1017.1
20260509105408 51 162 0.0 0.0 0.00 0.00 0.00 98 1017.5
20260509104905 51 144 0.0 0.0 0.00 0.00 0.00 98 1017.0
20260509104402 51 144 0.0 0.0 0.00 0.00 0.00 98 1017.3
20260509103859 51 177 0.0 0.0 0.00 0.00 0.00 98 1017.3
20260509103356 51 184 0.0 1.0 0.00 0.00 0.00 98 1017.3
20260509102855 51 171 0.0 0.0 0.00 0.00 0.00 98 1017.2
20260509102352 50 163 0.0 0.0 0.00 0.00 0.00 98 1017.2
20260509101847 50 163 0.0 0.0 0.00 0.00 0.00 98 1017.2
20260509101344 51 170 0.0 0.0 0.00 0.00 0.00 98 1017.2
20260509100842 51 173 0.0 0.0 0.00 0.00 0.00 98 1017.1
20260509100339 52 173 0.0 0.0 0.00 0.00 0.00 98 1017.3
20260509095835 52 176 0.0 0.0 0.00 0.00 0.00 98 1017.2
20260509095333 52 187 0.0 1.0 0.00 0.00 0.00 98 1017.3
20260509094830 52 196 0.0 0.0 0.00 0.00 0.00 98 1017.3
20260509094326 53 179 0.0 2.0 0.00 0.00 0.00 98 1017.2
20260509093824 53 195 0.0 0.0 0.00 0.00 0.00 98 1017.4
20260509093321 53 173 0.0 0.0 0.00 0.00 0.00 98 1017.3
20260509092820 53 172 0.0 0.0 0.00 0.00 0.00 98 1017.2
20260509092317 53 172 0.0 0.0 0.00 0.00 0.00 98 1017.2
20260509091815 52 172 0.0 0.0 0.00 0.00 0.00 98 1017.2
20260509091311 53 172 0.0 0.0 0.00 0.00 0.00 98 1017.1
20260509090809 53 172 0.0 0.0 0.00 0.00 0.00 98 1017.3
20260509090306 53 172 0.0 0.0 0.00 0.00 0.00 97 1017.4
20260509085803 53 172 0.0 0.0 0.00 0.00 0.00 97 1017.5
20260509085301 53 172 0.0 0.0 0.00 0.00 0.00 97 1017.6
20260509084757 53 172 0.0 0.0 0.00 0.00 0.00 97 1017.5
20260509084254 53 172 0.0 0.0 0.00 0.00 0.00 97 1017.8
20260509083752 53 172 0.0 0.0 0.00 0.00 0.00 97 1017.4
20260509083248 53 172 0.0 0.0 0.00 0.00 0.00 97 1017.6
20260509082745 53 172 0.0 0.0 0.00 0.00 0.00 97 1017.7
20260509082241 53 173 0.0 0.0 0.00 0.00 0.00 97 1017.6
20260509081738 53 172 0.0 0.0 0.00 0.00 0.00 97 1017.6
20260509081236 53 172 0.0 0.0 0.00 0.00 0.00 97 1017.8
20260509080734 53 172 0.0 0.0 0.00 0.00 0.00 97 1018.0
20260509080231 53 172 0.0 0.0 0.00 0.00 0.00 97 1017.9
20260509075729 53 172 0.0 0.0 0.00 0.00 0.00 97 1018.1
20260509075227 53 172 0.0 0.0 0.00 0.00 0.00 97 1017.8
20260509074723 53 172 0.0 0.0 0.00 0.00 0.00 96 1018.0
20260509074221 53 172 0.0 0.0 0.00 0.00 0.00 96 1018.1
20260509073717 53 172 0.0 0.0 0.00 0.00 0.00 96 1018.0
20260509073214 54 172 0.0 0.0 0.00 0.00 0.00 96 1017.8
20260509072710 54 172 0.0 0.0 0.00 0.00 0.00 96 1017.8
20260509072207 54 172 0.0 0.0 0.00 0.00 0.00 96 1017.8
20260509071703 54 173 0.0 0.0 0.00 0.00 0.00 96 1018.0
20260509071201 54 173 0.0 0.0 0.00 0.00 0.00 96 1018.0
20260509070658 54 173 0.0 0.0 0.00 0.00 0.00 96 1018.0
20260509070154 54 173 0.0 0.0 0.00 0.00 0.00 95 1017.9
20260509065650 55 173 0.0 0.0 0.00 0.00 0.00 95 1018.1
20260509065147 54 173 0.0 0.0 0.00 0.00 0.00 95 1018.1
20260509064643 55 173 0.0 0.0 0.00 0.00 0.00 95 1018.2
20260509064141 55 173 0.0 0.0 0.00 0.00 0.00 95 1018.1
20260509063638 55 174 0.0 0.0 0.00 0.00 0.00 95 1018.1
20260509063134 55 174 0.0 0.0 0.00 0.00 0.00 94 1018.1
20260509062632 55 174 0.0 0.0 0.00 0.00 0.00 94 1018.1
20260509062129 55 174 0.0 0.0 0.00 0.00 0.00 94 1018.3
20260509061626 56 176 0.0 0.0 0.00 0.00 0.00 94 1018.0
20260509061123 56 177 0.0 0.0 0.00 0.00 0.00 93 1018.1
20260509060621 56 190 0.0 0.0 0.00 0.00 0.00 93 1018.0
20260509060116 56 174 0.0 0.0 0.00 0.00 0.00 93 1018.2
20260509055612 57 180 0.0 1.0 0.00 0.00 0.00 93 1017.9
20260509055108 57 183 0.0 0.0 0.00 0.00 0.00 93 1018.3
20260509054605 57 178 0.0 0.0 0.00 0.00 0.00 93 1018.2
20260509054103 56 195 0.0 0.0 0.00 0.00 0.00 93 1018.1
20260509053601 56 168 0.0 0.0 0.00 0.00 0.00 93 1018.1
20260509053058 56 164 0.0 0.0 0.00 0.00 0.00 93 1018.1
20260509052555 57 165 0.0 0.0 0.00 0.00 0.00 93 1018.0
20260509052053 57 165 0.0 0.0 0.00 0.00 0.00 92 1018.1
20260509051551 57 167 0.0 0.0 0.00 0.00 0.00 92 1018.3
20260509051047 57 168 0.0 0.0 0.00 0.00 0.00 92 1018.3
20260509050544 57 171 0.0 0.0 0.00 0.00 0.00 92 1018.1
20260509050041 57 170 0.0 0.0 0.00 0.00 0.00 92 1018.0
20260509045538 57 173 0.0 0.0 0.00 0.00 0.00 92 1018.2
20260509045035 57 175 0.0 0.0 0.00 0.00 0.00 92 1018.1
20260509044533 57 178 0.0 0.0 0.00 0.00 0.00 92 1018.0
20260509044030 57 187 0.0 0.0 0.00 0.00 0.00 91 1017.9
20260509043526 57 160 0.0 0.0 0.00 0.00 0.00 91 1017.8
20260509043022 58 164 0.0 0.0 0.00 0.00 0.00 91 1017.7
20260509042518 58 164 0.0 0.0 0.00 0.00 0.00 91 1017.8
20260509042014 58 165 0.0 0.0 0.00 0.00 0.00 91 1017.7
20260509041511 58 170 0.0 0.0 0.00 0.00 0.00 91 1017.7
20260509041009 58 172 0.0 0.0 0.00 0.00 0.00 91 1017.7
20260509040507 58 171 0.0 0.0 0.00 0.00 0.00 91 1017.5
20260509040004 57 170 0.0 0.0 0.00 0.00 0.00 90 1017.5
20260509035501 58 170 0.0 0.0 0.00 0.00 0.00 91 1017.5
20260509034957 58 163 0.0 0.0 0.00 0.00 0.00 90 1017.5
20260509034455 58 163 0.0 0.0 0.00 0.00 0.00 90 1017.7
20260509033952 58 163 0.0 0.0 0.00 0.00 0.00 90 1017.6
20260509033449 58 166 0.0 0.0 0.00 0.00 0.00 89 1017.6
20260509032945 59 169 0.0 0.0 0.00 0.00 0.00 89 1017.6
20260509032443 59 157 0.0 0.0 0.00 0.00 0.00 88 1017.5
20260509031940 59 128 0.0 0.0 0.00 0.00 0.00 87 1017.4
20260509031438 59 31 0.0 1.0 0.00 0.00 0.00 87 1017.6
20260509030935 59 26 0.0 1.0 0.00 0.00 0.00 87 1017.4
20260509030433 60 41 0.0 2.0 0.00 0.00 0.00 86 1017.5
20260509025930 60 49 0.0 2.0 0.00 0.00 0.00 86 1017.5
20260509025425 60 344 1.0 1.0 0.00 0.00 0.00 86 1017.4
20260509024921 60 32 2.0 3.0 0.00 0.00 0.00 85 1017.4
20260509024417 61 163 0.0 0.0 0.00 0.00 0.00 85 1017.2
20260509023914 61 167 0.0 0.0 0.00 0.00 0.00 85 1017.1
20260509023411 61 176 0.0 1.0 0.00 0.00 0.00 85 1016.9
20260509022908 61 180 0.0 0.0 0.00 0.00 0.00 84 1017.1
20260509022405 61 184 0.0 0.0 0.00 0.00 0.00 84 1017.0
20260509021902 61 210 0.0 1.0 0.00 0.00 0.00 84 1016.7
20260509021359 61 178 0.0 2.0 0.00 0.00 0.00 84 1017.1
20260509020857 62 184 1.0 1.0 0.00 0.00 0.00 83 1017.3
20260509020355 62 133 0.0 0.0 0.00 0.00 0.00 83 1017.2
20260509015852 62 123 0.0 2.0 0.00 0.00 0.00 83 1017.2
20260509015350 62 191 0.0 1.0 0.00 0.00 0.00 82 1017.1